sat.trackr.live / text

‹ back to catalog

STARLINK-30779

NORAD 58160 · 2023-166L

PAYLOAD ACTIVE UNKNOWN

§ Identity

Operator
Country
US
Launch date
2023-10-29
Launch site
AFWTR
Launch vehicle
Mass (kg)
RCS (m²)

Purposes: comms

External: N2YO · Heavens-Above · Gunter

§ Orbital elements

Epoch: 2026-09-20T14:56:38.440896Z

Period
94.01 min
Inclination
53.1590°
Eccentricity
0.0001188
Mean motion
15.31700282 rev/d
Perigee alt
469.9 km
Apogee alt
471.6 km
Semi-major
6,848.9 km
B*
6.0776e-6
RAAN
32.8079°
Arg perigee
91.7311°
Mean anomaly
268.3826°
Rev number
16,304

§ Raw data

STARLINK-307791 58160U 23166L   26263.62266714 -.00000176  00000+0  60776-5 0  99962 58160  53.1590  32.8079 0001188  91.7311 268.3826 15.31700282163042

JSON: /api/v1/satellites/58160 · /tle

For live sub-satellite position, see the globe view (requires WebGL).

§ Visibility from observer

Set your observer location to see the next 7 days of passes ≥ 10°. The values pass through the URL so the page stays shareable.

No JS? Fill the form by hand. The geolocation button needs JavaScript.